This demonstration page uses our WeatherBlox Daily Observations layout. Learn more.

Left ArrowRight Arrow

Hourly Observations for June 18, 2017

Temp ( °F °C ) Dew Point ( °F °C ) Humidity (%) Winds ( mph kmh ) Pressure ( in mb ) Visibility ( mi km ) Precip ( " mm )
12:58 am 00:58 Mostly Clear 66 19 57 14 73 73 VRB 3 6 29.75 1007 7 11 0.00 0.00
1:58 am 01:58 Mostly Clear 66 19 57 14 73 73 VRB 3 6 29.75 1007 7 11 0.00 0.00
2:58 am 02:58 Mostly Clear 66 19 57 14 73 73 VRB 3 6 29.75 1007 7 11 0.00 0.00
3:58 am 03:58 Mostly Clear 64 18 55 13 73 73 VRB 3 6 29.75 1007 7 11 0.00 0.00
4:57 am 04:57 Partly Cloudy 66 19 55 13 68 68 VRB 3 6 29.75 1007 7 11 0.00 0.00
5:56 am 05:56 Partly Cloudy 64 18 55 13 73 73 W 10 17 29.75 1007 7 11 0.00 0.00
6:58 am 06:58 Partly Cloudy 64 18 55 13 73 73 W 13 20 29.75 1007 7 11 0.00 0.00
7:57 am 07:57 Sunny 68 20 55 13 64 64 W 12 19 29.75 1007 7 11 0.00 0.00
8:58 am 08:58 Sunny 70 21 55 13 60 60 W 16 26 29.77 1008 7 11 0.00 0.00
9:56 am 09:56 Mostly Sunny 70 21 55 13 60 60 W 12 19 29.77 1008 7 11 0.00 0.00
10:56 am 10:56 Partly Cloudy 73 23 52 11 47 47 W 14 22 29.78 1008 7 11 0.00 0.00
11:57 am 11:57 Partly Cloudy 75 24 54 12 47 47 W 16 26 29.77 1008 7 11 0.00 0.00
12:57 pm 12:57 Partly Cloudy 77 25 54 12 44 44 S 14 22 29.77 1008 7 11 0.00 0.00
1:59 pm 13:59 Partly Cloudy 79 26 52 11 39 39 WNW 14 22 29.77 1008 7 11 0.00 0.00
2:55 pm 14:55 Partly Cloudy 79 26 48 9 34 34 WNW 14 22 29.77 1008 7 11 0.00 0.00
3:56 pm 15:56 Partly Cloudy 81 27 48 9 32 32 WNW 12 19 29.85 1011 7 11 0.00 0.00
4:56 pm 16:56 Partly Cloudy 81 27 46 8 30 30 NW 12 19 29.77 1008 7 11 0.00 0.00
5:56 pm 17:56 Partly Cloudy 81 27 46 8 30 30 NW 12 19 29.77 1008 7 11 0.00 0.00
6:56 pm 18:56 Partly Cloudy 79 26 46 8 32 32 NW 7 11 29.77 1008 7 11 0.00 0.00
7:56 pm 19:56 Mostly Sunny 79 26 46 8 32 32 NW 7 11 29.77 1008 7 11 0.00 0.00
8:56 pm 20:56 Partly Cloudy 75 24 46 8 36 36 NW 7 11 29.77 1008 7 11 0.00 0.00
9:55 pm 21:55 Partly Cloudy 75 24 48 9 39 39 NNW 7 11 29.78 1008 7 11 0.00 0.00
9:56 pm 21:56 Partly Cloudy 75 24 48 9 39 39 NNW 7 11 29.78 1008 7 11 0.00 0.00
10:56 pm 22:56 Partly Cloudy 73 23 48 9 41 41 NNW 7 11 29.78 1008 7 11 0.00 0.00
11:55 pm 23:55 Partly Cloudy 70 21 52 11 53 53 NNW 3 6 29.78 1008 7 11 0.00 0.00

Powered by AerisWeather